This is the latest recevied weather packets stored in our database for station/object W4MLN-1. If no packets are shown the sender has not sent any weather packets the latest 10 day(s).
| Time | Temp. | Humidity | Pressure | Rain* | Wind** | Luminosity | Snow |
|---|---|---|---|---|---|---|---|
| 1777474639 | 17.78° C | 86% | 1013.2 hPa | 0 mm | - | 125 W/m² | - |
| 1777474338 | 17.78° C | 87% | 1013.2 hPa | 0 mm | - | 176 W/m² | - |
| 1777474038 | 18.33° C | 91% | 1013.2 hPa | 0 mm | - | 393 W/m² | - |
| 1777473738 | 17.78° C | 90% | 1013.2 hPa | 0 mm | - | 297 W/m² | - |
| 1777473439 | 17.78° C | 91% | 1013.2 hPa | 0 mm | - | 451 W/m² | - |
| 1777473138 | 17.22° C | 93% | 1013.2 hPa | 0 mm | - | 465 W/m² | - |
| 1777472838 | 16.67° C | 94% | 1013.2 hPa | 0 mm | - | 428 W/m² | - |
| 1777472536 | 16.67° C | 96% | 1013.2 hPa | 0 mm | - | 321 W/m² | - |
| 1777472237 | 16.11° C | 96% | 1013.2 hPa | 0 mm | - | 215 W/m² | - |
| 1777471937 | 16.11° C | 96% | 1013.2 hPa | 0 mm | - | 245 W/m² | - |
| 1777471638 | 16.11° C | 96% | 1013.3 hPa | 0 mm | - | 183 W/m² | - |
| 1777471324 | 16.11° C | 97% | 1013.3 hPa | 0 mm | - | 112 W/m² | - |
| 1777471024 | 15.56° C | 97% | 1013.3 hPa | 0 mm | - | 133 W/m² | - |
| 1777470709 | 15.56° C | 98% | 1013.4 hPa | 0 mm | - | 129 W/m² | - |
| 1777470410 | 15.56° C | 97% | 1013.3 hPa | 0 mm | - | 142 W/m² | - |
| 1777470109 | 15.56° C | 97% | 1013.4 hPa | 0 mm | - | 133 W/m² | - |
| 1777469809 | 15.56° C | 98% | 1013.4 hPa | 0 mm | - | 127 W/m² | - |
| 1777469509 | 15° C | 99% | 1013.5 hPa | 0 mm | - | 268 W/m² | - |
| 1777469209 | 15° C | 99% | 1013.4 hPa | 0 mm | - | 254 W/m² | - |
| 1777468910 | 14.44° C | 100% | 1013.4 hPa | 0.25 mm | - | 302 W/m² | - |
| 1777468609 | 14.44° C | 100% | 1013.4 hPa | 0.76 mm | - | 201 W/m² | - |
| 1777468310 | 14.44° C | 100% | 1013.4 hPa | 1.78 mm | - | 150 W/m² | - |
| 1777467995 | 14.44° C | 100% | 1013.5 hPa | 2.03 mm | - | 211 W/m² | - |
| 1777467694 | 13.89° C | 99% | 1013.5 hPa | 2.29 mm | - | 146 W/m² | - |
| 1777467380 | 13.89° C | 100% | 1013.6 hPa | 2.54 mm | - | 107 W/m² | - |
* Rain latest hour (hover to see other rain measurements)
** Current wind speed in m/s (hover to see current wind gust speed)